Total_Precipitation_Accumulation
0.17 0.15 0.26 0.19 0.17 0.19 0.22 0.25 0.28 0.26 0.25 0.24 0.20 0.16 0.14 0.15 0.14 0.13 0.15 0.19 0.24 0.29 0.32 0.38 0.46 0.49 0.52 0.52 0.51 0.49 0.53 0.59 0.73 0.74 0.73 0.74 0.89 1.14 1.31 1.29 1.30 0.85 0.73
0.05 0.07 0.20 0.16 0.14 0.16 0.18 0.22 0.24 0.24 0.21 0.21 0.20 0.18 0.17 0.17 0.17 0.17 0.21 0.27 0.30 0.32 0.35 0.41 0.42 0.39 0.40 0.41 0.41 0.41 0.48 0.65 0.88 0.98 1.03 0.94 1.11 1.31 1.32 1.22 1.31 0.77 0.72
0.03 0.04 0.10 0.13 0.12 0.13 0.15 0.19 0.23 0.23 0.21 0.20 0.19 0.19 0.22 0.24 0.22 0.22 0.25 0.30 0.32 0.33 0.32 0.32 0.31 0.32 0.33 0.36 0.40 0.45 0.52 0.78 1.10 1.36 1.52 1.23 0.88 1.23 1.29 1.17 1.00 0.66 0.73
0.02 0.03 0.06 0.11 0.11 0.11 0.13 0.17 0.21 0.25 0.23 0.21 0.21 0.21 0.23 0.28 0.32 0.31 0.32 0.37 0.36 0.34 0.30 0.29 0.29 0.27 0.29 0.33 0.41 0.52 0.64 0.85 1.19 1.62 1.85 1.14 0.62 0.79 0.92 0.84 0.78 0.67 0.68
0.04 0.05 0.10 0.12 0.10 0.10 0.12 0.16 0.20 0.22 0.21 0.20 0.18 0.21 0.24 0.29 0.34 0.38 0.37 0.36 0.36 0.35 0.31 0.29 0.25 0.24 0.26 0.32 0.43 0.55 0.68 0.90 1.19 1.45 1.24 1.12 0.96 0.81 0.73 0.66 0.67 0.63 0.56
0.06 0.06 0.10 0.13 0.11 0.10 0.10 0.13 0.18 0.20 0.20 0.21 0.22 0.23 0.27 0.29 0.32 0.33 0.31 0.32 0.35 0.34 0.32 0.28 0.22 0.24 0.29 0.32 0.44 0.58 0.68 0.90 1.10 0.90 0.77 0.91 0.80 0.81 0.78 0.78 0.79 0.69 0.57
0.07 0.07 0.08 0.12 0.12 0.11 0.11 0.13 0.16 0.17 0.19 0.21 0.23 0.23 0.27 0.30 0.32 0.31 0.28 0.28 0.32 0.34 0.32 0.27 0.25 0.27 0.30 0.35 0.43 0.55 0.78 0.97 0.96 0.69 0.71 0.89 0.67 0.62 0.80 0.96 1.05 0.89 0.73
0.11 0.07 0.09 0.15 0.17 0.18 0.16 0.18 0.19 0.18 0.18 0.22 0.23 0.22 0.25 0.29 0.29 0.30 0.30 0.29 0.32 0.35 0.31 0.25 0.30 0.33 0.35 0.40 0.44 0.53 0.73 0.85 0.75 0.66 0.66 0.68 0.46 0.53 0.78 1.03 1.17 1.07 0.95
0.23 0.20 0.16 0.16 0.19 0.24 0.25 0.23 0.24 0.23 0.23 0.24 0.24 0.24 0.27 0.28 0.28 0.29 0.36 0.37 0.37 0.38 0.35 0.28 0.27 0.26 0.29 0.35 0.43 0.53 0.70 0.85 0.79 0.71 0.58 0.52 0.43 0.57 0.85 1.03 1.10 1.13 1.08
0.57 0.43 0.27 0.25 0.26 0.23 0.22 0.27 0.31 0.28 0.26 0.26 0.25 0.27 0.29 0.31 0.32 0.36 0.39 0.44 0.46 0.46 0.42 0.36 0.30 0.28 0.33 0.39 0.48 0.64 0.80 0.78 0.74 0.78 0.77 0.57 0.54 0.69 0.89 1.01 1.17 1.23 1.15
1.07 0.88 0.53 0.39 0.36 0.34 0.29 0.29 0.38 0.37 0.34 0.35 0.39 0.39 0.48 0.60 0.60 0.70 0.65 0.67 0.66 0.63 0.59 0.55 0.53 0.49 0.47 0.43 0.57 0.79 0.79 0.75 1.00 1.06 0.76 0.60 0.69 0.91 1.07 1.16 1.25 1.25 1.24
1.24 1.12 0.82 0.70 0.52 0.44 0.40 0.51 0.68 0.63 0.64 0.65 0.75 0.74 0.98 1.19 1.12 0.89 0.95 1.14 1.14 1.12 1.03 1.02 1.02 0.85 0.68 0.65 1.12 1.43 1.04 1.07 1.16 0.90 0.72 0.80 1.06 1.34 1.56 1.47 1.33 1.21 1.14
1.39 1.24 1.00 0.95 0.84 0.68 0.76 0.70 0.82 0.97 1.08 0.96 0.93 1.01 1.33 1.26 1.02 1.01 1.10 1.31 1.52 1.47 1.38 1.53 1.62 1.32 1.25 1.48 1.80 1.71 1.30 1.34 1.29 1.10 0.87 1.06 1.41 1.80 2.03 1.90 1.63 1.37 1.19
1.70 1.53 1.31 1.16 1.03 0.97 0.95 0.89 0.92 0.97 1.11 1.06 1.18 1.18 1.36 1.57 1.50 1.48 1.57 1.61 1.74 1.87 2.14 2.07 2.12 1.94 1.85 1.79 1.93 1.74 1.54 1.57 1.46 1.57 1.59 1.62 1.67 1.92 2.33 2.27 1.93 1.64 1.47
2.21 2.07 1.87 1.54 1.47 1.38 1.41 1.39 1.18 1.18 1.26 1.36 1.52 1.52 1.47 1.69 1.74 1.82 1.85 1.88 1.79 1.90 2.08 2.31 2.23 2.30 2.37 2.16 1.89 1.76 1.81 1.83 1.88 1.85 1.79 2.00 1.90 1.89 2.33 2.43 2.18 1.91 1.76
2.89 2.89 2.67 2.32 2.24 2.10 1.88 1.74 1.67 1.54 1.63 1.68 1.74 1.73 1.72 1.97 2.13 2.08 1.93 1.94 1.87 1.91 1.98 2.15 2.26 2.58 2.54 2.45 2.04 1.86 1.89 1.98 1.97 2.06 1.97 2.24 2.10 1.85 2.07 2.31 2.40 2.25 2.03
3.18 3.33 3.32 3.16 3.11 2.93 2.63 2.27 2.03 1.98 1.88 2.00 2.09 2.04 2.08 2.16 2.31 2.24 2.11 1.95 1.98 2.02 2.12 2.15 2.28 2.57 2.54 2.42 2.19 2.04 1.96 1.82 1.70 1.76 1.82 1.99 1.91 1.79 1.85 2.04 2.29 2.36 2.25
3.46 3.64 3.85 3.80 3.77 3.51 3.20 2.85 2.55 2.37 2.29 2.29 2.27 2.25 2.18 2.32 2.35 2.34 2.14 1.92 2.08 2.05 2.14 2.33 2.43 2.59 2.73 2.73 2.45 2.18 2.03 1.87 1.67 1.63 1.58 1.59 1.73 1.45 1.64 1.86 2.03 2.15 2.43
3.81 4.17 4.52 4.58 4.46 4.08 3.62 3.35 3.20 2.97 2.73 2.54 2.52 2.38 2.31 2.37 2.28 2.32 2.10 2.01 2.14 2.26 2.26 2.12 2.52 2.76 2.81 2.82 2.39 2.19 1.86 1.71 1.55 1.43 1.45 1.33 1.38 1.38 1.41 1.48 1.63 1.75 2.22
4.31 4.89 4.89 4.80 5.03 4.79 4.40 4.11 3.82 3.42 3.10 2.80 2.64 2.47 2.29 2.19 2.14 2.34 2.01 2.00 2.20 2.36 2.34 2.38 2.70 2.82 2.71 2.82 2.43 2.05 1.67 1.35 1.29 1.24 1.15 1.11 1.08 0.97 1.04 1.28 1.58 1.45 1.85
4.13 4.66 5.16 5.19 5.07 4.84 4.47 3.98 3.60 3.24 3.04 2.77 2.50 2.30 2.23 2.21 2.29 2.57 2.26 2.33 2.29 2.26 2.27 2.45 2.64 2.56 2.41 2.78 2.83 2.16 1.48 1.11 1.05 0.88 0.86 0.87 0.80 0.82 1.05 1.36 1.55 1.62 1.48
3.53 3.97 4.35 4.56 4.21 3.77 3.54 3.44 3.29 3.27 2.92 2.75 2.66 2.60 2.39 2.39 2.37 2.37 2.42 2.30 2.33 2.35 2.18 2.23 2.48 2.36 2.01 2.37 2.64 2.61 1.94 1.47 1.07 0.66 0.69 0.71 0.75 0.94 1.00 1.05 1.34 1.63 1.55
2.98 3.13 3.28 3.40 3.34 3.29 3.36 3.45 3.50 3.57 3.27 3.14 3.02 2.88 2.56 2.48 2.42 2.44 2.27 2.14 2.18 2.12 2.01 1.97 2.16 2.25 2.04 2.01 2.34 2.69 2.20 1.63 1.27 0.83 0.76 0.75 0.94 1.19 1.18 1.16 1.24 1.43 1.51
2.32 2.56 2.95 3.08 3.13 3.28 3.54 3.54 3.51 3.39 3.26 3.25 3.32 3.29 3.18 2.94 2.68 2.47 2.25 2.07 1.95 1.84 1.86 1.64 1.86 2.00 2.05 1.75 1.89 1.98 1.86 1.83 1.77 1.30 0.96 0.88 1.09 1.21 1.22 1.21 1.24 1.38 1.46
1.94 2.18 2.60 3.05 3.28 3.47 3.69 3.76 3.91 3.76 3.55 3.39 3.41 3.45 3.24 3.03 2.77 2.46 2.30 2.15 1.99 1.84 1.71 1.63 1.78 1.71 1.71 1.61 1.69 1.73 1.74 1.72 1.63 1.58 1.30 1.18 1.13 0.90 0.91 0.99 1.19 1.49 1.55
2.09 2.26 2.46 2.79 3.18 3.46 3.58 3.62 3.61 3.53 3.43 3.23 3.10 2.87 2.60 2.50 2.38 2.19 2.08 1.96 1.81 1.81 1.79 1.73 1.69 1.62 1.62 1.67 1.65 1.60 1.68 1.71 1.67 1.73 1.52 1.36 1.23 1.00 0.96 0.99 1.11 1.29 1.38